Location: Fort Wayne
(41.1310°N, 85.1290°W)
Time: 09:39:29
(UTC-04:00)

Cosmos 2056 Rocket - Visible Passes

Search period start: 03 June 2015 00:00
Search period end: 13 June 2015 00:00
Orbit: 742 x 802 km, 74.0° (Epoch: 02 June)

Date Brightness Start Highest point End Pass type
(mag) Time Alt. Az. Time Alt. Az. Time Alt. Az.
03 Jun 3.9 04:24:08 18° S 04:28:08 64° ESE 04:33:31 10° NNE visible
04 Jun 4.6 03:49:13 20° SSE 03:52:26 38° ESE 03:57:27 10° NE visible
04 Jun 4.8 05:30:02 10° WSW 05:34:43 28° WNW 05:39:21 10° N visible
05 Jun 5.3 03:14:17 17° SE 03:16:48 23° E 03:21:04 10° NE visible
05 Jun 4.1 04:54:39 16° SW 04:58:42 45° WNW 05:03:54 10° N visible
06 Jun 5.8 02:39:18 11° ESE 02:41:13 14° E 02:44:01 10° ENE visible
06 Jun 3.6 04:19:40 26° SSW 04:22:48 73° WNW 04:28:16 10° NNE visible
07 Jun 3.7 03:44:39 34° S 03:47:00 69° ESE 03:52:26 10° NNE visible
07 Jun 5.4 05:26:10 10° W 05:29:49 17° NW 05:33:17 10° NNW visible
08 Jun 4.4 03:09:36 32° SE 03:11:18 41° ESE 03:16:24 10° NNE visible
08 Jun 4.9 04:49:57 14° WSW 04:53:39 27° WNW 04:58:11 10° N visible
09 Jun 5.0 02:34:32 23° ESE 02:35:39 25° E 02:40:05 10° NE visible
09 Jun 4.3 04:14:53 24° WSW 04:17:37 42° WNW 04:22:45 10° N visible
10 Jun 5.6 01:59:25 15° ESE 02:00:04 15° E 02:03:10 10° ENE visible
10 Jun 3.6 03:39:46 40° SW 03:41:42 68° WNW 03:47:08 10° NNE visible
10 Jun 5.9 05:24:11 10° WNW 05:25:05 10° NW 05:25:40 10° NW visible
11 Jun 3.6 03:04:38 52° S 03:05:54 74° ESE 03:11:20 10° NNE visible
11 Jun 5.6 04:45:20 10° W 04:48:46 16° NW 04:52:01 10° NNW visible
12 Jun 4.1 02:29:28 42° SE 02:30:10 44° ESE 02:35:20 10° NNE visible
12 Jun 5.1 04:09:49 17° W 04:12:36 25° WNW 04:16:59 10° N visible
